TimeEST,TemperatureF,Dew PointF,Humidity,Sea Level PressureIn,VisibilityMPH,Wind Direction,Wind SpeedMPH,Gust SpeedMPH,PrecipitationIn,Events,Conditions,WindDirDegrees,DateUTC
12:53 AM,18.0,14.0,84,30.23,7.0,WSW,6.9,-,N/A,,Clear,240,2012-12-31 05:53:00
1:53 AM,19.9,15.1,81,30.20,7.0,WSW,8.1,-,N/A,,Clear,240,2012-12-31 06:53:00
2:53 AM,21.0,16.0,81,30.19,8.0,SW,10.4,-,N/A,,Clear,230,2012-12-31 07:53:00
3:53 AM,21.9,17.1,82,30.15,8.0,SW,9.2,-,N/A,,Clear,230,2012-12-31 08:53:00
4:53 AM,23.0,18.0,81,30.13,8.0,SW,11.5,-,N/A,,Clear,230,2012-12-31 09:53:00
5:53 AM,25.0,19.0,78,30.12,9.0,SW,15.0,-,N/A,,Clear,230,2012-12-31 10:53:00
6:53 AM,25.0,19.9,81,30.11,9.0,WSW,12.7,-,N/A,,Clear,240,2012-12-31 11:53:00
7:53 AM,26.1,21.0,81,30.09,8.0,SW,12.7,-,N/A,,Clear,230,2012-12-31 12:53:00
8:53 AM,26.1,19.9,78,30.07,7.0,WSW,11.5,-,N/A,,Clear,240,2012-12-31 13:53:00
9:53 AM,27.0,21.0,78,30.07,8.0,WSW,8.1,-,N/A,,Partly Cloudy,240,2012-12-31 14:53:00
10:53 AM,30.9,21.9,69,30.07,10.0,WSW,11.5,-,N/A,,Clear,250,2012-12-31 15:53:00
11:53 AM,32.0,21.9,66,30.05,10.0,West,16.1,21.9,0.05,,Clear,260,2012-12-31 16:53:00
12:53 PM,33.1,23.0,66,30.01,10.0,WSW,12.7,20.7,0.03,,Partly Cloudy,250,2012-12-31 17:53:00
1:53 PM,33.1,24.1,70,29.99,10.0,WSW,10.4,-,N/A,,Mostly Cloudy,240,2012-12-31 18:53:00
2:53 PM,35.1,25.0,67,29.99,10.0,West,9.2,-,N/A,,Mostly Cloudy,260,2012-12-31 19:53:00
3:53 PM,35.1,25.0,67,30.01,10.0,West,12.7,-,N/A,,Overcast,280,2012-12-31 20:53:00
4:53 PM,34.0,25.0,70,30.00,10.0,West,11.5,-,N/A,,Overcast,270,2012-12-31 21:53:00
5:53 PM,32.0,27.0,82,30.01,10.0,West,10.4,-,N/A,,Overcast,260,2012-12-31 22:53:00
6:53 PM,32.0,28.0,85,30.02,9.0,West,9.2,-,0.00,,Overcast,260,2012-12-31 23:53:00
7:53 PM,32.0,28.0,85,30.03,9.0,West,6.9,-,N/A,,Overcast,270,2013-01-01 00:53:00
8:53 PM,33.1,28.0,82,30.04,9.0,West,8.1,-,N/A,,Overcast,270,2013-01-01 01:53:00
9:07 PM,33.8,26.6,75,30.00,9.0,West,9.2,-,N/A,,Overcast,280,2013-01-01 02:07:00
9:34 PM,32.0,26.6,80,30.00,10.0,NW,6.9,-,N/A,,Overcast,310,2013-01-01 02:34:00
10:26 PM,30.2,24.8,80,30.00,8.0,NNW,8.1,-,N/A,,Overcast,340,2013-01-01 03:26:00
10:46 PM,30.2,24.8,80,30.02,8.0,NNW,6.9,-,N/A,,Overcast,340,2013-01-01 03:46:00
11:01 PM,30.2,24.8,80,30.02,8.0,North,9.2,-,N/A,,Overcast,350,2013-01-01 04:01:00
11:53 PM,28.0,21.0,75,30.07,10.0,North,8.1,-,N/A,,Mostly Cloudy,350,2013-01-01 04:53:00